Date,TemperatureHighF,TemperatureAvgF,TemperatureLowF,DewpointHighF,DewpointAvgF,DewpointLowF,HumidityHigh,HumidityAvg,HumidityLow,PressureMaxIn,PressureMinIn,WindSpeedMaxMPH,WindSpeedAvgMPH,GustSpeedMaxMPH,PrecipitationSumIn
2013-2-1,69.7,48.9,39.0,52.5,44.8,37.3,96,87,51,30.22,30.09,4,1,9,0.00
2013-2-2,56.3,48.1,42.6,49.9,45.8,41.3,97,92,77,30.26,30.19,4,0,10,0.00
2013-2-3,56.6,47.6,40.8,49.3,44.8,39.3,97,91,71,30.23,30.11,4,0,9,0.01
2013-2-4,61.4,45.6,36.2,50.9,43.1,35.1,97,91,66,30.16,30.03,3,1,7,0.00
2013-2-5,52.7,46.8,40.1,47.4,44.3,38.8,97,91,82,30.14,30.05,4,1,11,0.01
2013-2-6,59.9,45.9,37.3,48.5,41.9,36.3,97,87,58,30.18,30.10,3,1,7,0.01
2013-2-7,56.2,45.9,37.9,48.4,41.2,36.4,96,84,52,30.17,30.00,4,1,11,0.05
2013-2-8,56.3,44.1,35.7,45.7,38.7,33.4,97,83,51,30.00,29.93,5,1,13,0.03
2013-2-9,55.5,42.1,31.3,46.3,37.5,29.1,93,84,68,30.09,29.98,3,1,8,0.01
2013-2-10,54.6,42.7,31.9,48.0,38.4,30.0,94,85,57,30.10,30.00,3,1,8,0.00
2013-2-11,56.9,44.3,33.7,45.8,38.9,32.4,97,83,53,30.23,30.05,4,1,8,0.01
2013-2-12,57.6,45.0,35.3,48.6,40.2,33.5,95,84,60,30.34,30.23,4,1,7,0.00
2013-2-13,58.6,45.4,34.5,50.1,41.1,33.0,95,85,60,30.33,30.19,3,1,6,0.00
2013-2-14,66.5,49.9,36.0,51.0,43.3,34.3,96,80,51,30.21,30.10,3,1,10,0.00
2013-2-15,75.6,55.8,40.6,49.4,42.3,36.1,92,65,28,30.22,30.15,3,1,5,0.00
2013-2-16,71.7,54.0,42.2,51.2,42.8,36.8,90,68,37,30.18,30.01,3,1,6,0.00
2013-2-17,56.3,47.3,40.2,48.3,43.9,38.6,96,88,73,30.06,29.95,4,1,9,0.00
2013-2-18,52.7,46.1,39.2,47.9,42.0,37.8,97,86,68,30.05,29.98,4,1,9,0.01
2013-2-19,49.1,42.7,32.5,46.8,39.5,31.0,95,89,71,29.98,29.76,5,1,19,0.26
2013-2-20,61.4,43.2,30.7,44.8,37.0,29.4,97,81,46,30.07,29.83,6,1,13,0.01
2013-2-21,62.2,46.1,34.5,44.9,37.5,33.1,96,75,38,30.16,30.05,5,2,14,0.01
2013-2-22,61.5,46.0,35.3,51.2,41.3,33.1,95,84,68,30.24,30.15,5,1,10,0.00
2013-2-23,63.7,51.2,41.7,46.6,39.6,33.5,95,68,34,30.24,30.11,6,1,15,0.00
2013-2-24,60.6,49.1,38.6,44.8,34.4,26.2,78,58,34,30.25,30.13,6,1,11,0.00
2013-2-25,62.8,46.4,34.1,48.9,39.2,30.9,93,77,52,30.27,30.13,4,1,9,0.00
2013-2-26,61.5,44.5,34.4,47.7,38.1,32.7,95,80,48,30.19,30.09,3,1,7,0.00
2013-2-27,64.5,47.4,35.2,51.7,40.8,31.6,92,79,42,30.35,30.18,3,1,8,0.00
2013-2-28,66.5,50.2,39.3,54.0,45.6,37.4,94,85,58,30.43,30.33,2,1,7,0.00